| time (UTC) | temp C | wind direction | speed KPH | gust KPH | rain 1hr cm | rain 24hr cm | rain mn cm | humidity % | barometer mb |
| 20260507144228 | 12 | 238 | 27.4 | 43.5 | 0.00 | 0.64 | 0.00 | 46 | 1014.2 |
| 20260507143510 | 11 | 254 | 27.4 | 43.5 | 0.00 | 0.64 | 0.00 | 49 | 1014.2 |
| 20260507143011 | 11 | 238 | 25.7 | 37.0 | 0.00 | 0.64 | 0.00 | 49 | 1014.1 |
| 20260507142509 | 10 | 279 | 16.1 | 37.0 | 0.00 | 0.64 | 0.00 | 50 | 1014.2 |
| 20260507142009 | 10 | 264 | 22.5 | 33.8 | 0.00 | 0.64 | 0.00 | 51 | 1014.1 |
| 20260507141511 | 9 | 241 | 19.3 | 33.8 | 0.00 | 0.64 | 0.00 | 53 | 1014.2 |
| 20260507141241 | 8 | 250 | 24.1 | 33.8 | 0.00 | 0.64 | 0.00 | 54 | 1014.2 |
| 20260507140510 | 8 | 279 | 24.1 | 35.4 | 0.00 | 0.64 | 0.00 | 55 | 1014.1 |
| 20260507140009 | 8 | 254 | 20.9 | 37.0 | 0.00 | 0.64 | 0.00 | 56 | 1014.1 |
| 20260507135508 | 7 | 238 | 24.1 | 37.0 | 0.00 | 0.64 | 0.00 | 56 | 1014.1 |
| 20260507135009 | 7 | 257 | 24.1 | 37.0 | 0.00 | 0.64 | 0.00 | 57 | 1014.1 |
| 20260507134509 | 7 | 244 | 29.0 | 37.0 | 0.00 | 0.66 | 0.00 | 60 | 1014.0 |
| 20260507134009 | 6 | 255 | 24.1 | 35.4 | 0.00 | 0.66 | 0.00 | 60 | 1013.9 |
| 20260507133508 | 6 | 234 | 24.1 | 33.8 | 0.00 | 0.66 | 0.00 | 60 | 1013.9 |
| 20260507133227 | 6 | 223 | 24.1 | 33.8 | 0.00 | 0.66 | 0.00 | 62 | 1013.9 |
| 20260507132731 | 6 | 219 | 24.1 | 43.5 | 0.00 | 0.66 | 0.00 | 63 | 1013.9 |
| 20260507132002 | 5 | 238 | 29.0 | 43.5 | 0.00 | 0.66 | 0.00 | 63 | 1013.9 |
| 20260507131732 | 5 | 237 | 25.7 | 37.0 | 0.00 | 0.66 | 0.00 | 64 | 1013.7 |
| 20260507131002 | 5 | 254 | 27.4 | 35.4 | 0.00 | 0.66 | 0.00 | 65 | 1013.7 |
| 20260507130503 | 5 | 221 | 25.7 | 35.4 | 0.00 | 0.66 | 0.00 | 66 | 1013.7 |
| 20260507130221 | 4 | 237 | 24.1 | 33.8 | 0.00 | 0.66 | 0.00 | 66 | 1013.6 |
| 20260507125456 | 4 | 248 | 25.7 | 33.8 | 0.00 | 0.66 | 0.00 | 66 | 1013.4 |
| 20260507124457 | 3 | 238 | 27.4 | 35.4 | 0.00 | 0.66 | 0.00 | 67 | 1013.3 |
| 20260507123958 | 3 | 226 | 24.1 | 33.8 | 0.00 | 0.66 | 0.00 | 68 | 1013.4 |
| 20260507123453 | 3 | 237 | 24.1 | 32.2 | 0.00 | 0.66 | 0.00 | 68 | 1013.3 |
| 20260507122451 | 2 | 235 | 25.7 | 32.2 | 0.00 | 0.66 | 0.00 | 69 | 1013.4 |
| 20260507121952 | 2 | 231 | 22.5 | 32.2 | 0.00 | 0.66 | 0.00 | 70 | 1013.2 |
| 20260507121448 | 2 | 227 | 20.9 | 32.2 | 0.00 | 0.66 | 0.00 | 70 | 1013.2 |
| 20260507120948 | 2 | 247 | 22.5 | 29.0 | 0.00 | 0.66 | 0.00 | 71 | 1013.2 |
| 20260507120445 | 2 | 226 | 22.5 | 32.2 | 0.00 | 0.66 | 0.00 | 71 | 1013.3 |
| 20260507115944 | 2 | 243 | 20.9 | 32.2 | 0.00 | 0.66 | 0.00 | 71 | 1013.2 |
| 20260507115445 | 2 | 250 | 20.9 | 25.7 | 0.00 | 0.66 | 0.00 | 71 | 1013.1 |
| 20260507115202 | 2 | 214 | 19.3 | 29.0 | 0.00 | 0.66 | 0.00 | 71 | 1013.2 |
| 20260507114440 | 2 | 227 | 19.3 | 29.0 | 0.00 | 0.66 | 0.00 | 71 | 1013.2 |
| 20260507113937 | 2 | 226 | 20.9 | 29.0 | 0.00 | 0.66 | 0.00 | 72 | 1013.2 |
| 20260507113437 | 2 | 224 | 19.3 | 30.6 | 0.00 | 0.66 | 0.00 | 72 | 1013.1 |
| 20260507113157 | 2 | 223 | 20.9 | 30.6 | 0.00 | 0.66 | 0.00 | 72 | 1013.1 |
| 20260507112436 | 2 | 224 | 20.9 | 30.6 | 0.00 | 0.66 | 0.00 | 73 | 1013.2 |
| 20260507111931 | 2 | 227 | 22.5 | 30.6 | 0.00 | 0.66 | 0.00 | 73 | 1013.3 |
| 20260507111432 | 2 | 216 | 20.9 | 30.6 | 0.00 | 0.66 | 0.00 | 73 | 1013.3 |
| 20260507110932 | 2 | 233 | 24.1 | 32.2 | 0.00 | 0.66 | 0.00 | 74 | 1013.4 |
| 20260507110432 | 2 | 224 | 19.3 | 32.2 | 0.00 | 0.66 | 0.00 | 74 | 1013.4 |
| 20260507105931 | 2 | 234 | 20.9 | 32.2 | 0.00 | 0.66 | 0.00 | 74 | 1013.4 |
| 20260507105431 | 2 | 226 | 19.3 | 32.2 | 0.00 | 0.66 | 0.00 | 75 | 1013.6 |
| 20260507104931 | 2 | 237 | 22.5 | 32.2 | 0.00 | 0.66 | 0.00 | 75 | 1013.7 |
| 20260507104432 | 2 | 228 | 20.9 | 29.0 | 0.00 | 0.66 | 0.00 | 75 | 1013.7 |
| 20260507103933 | 2 | 231 | 20.9 | 35.4 | 0.00 | 0.66 | 0.00 | 75 | 1013.7 |
| 20260507103431 | 2 | 238 | 19.3 | 35.4 | 0.00 | 0.66 | 0.00 | 76 | 1013.9 |
| 20260507102932 | 2 | 234 | 17.7 | 25.7 | 0.00 | 0.66 | 0.00 | 76 | 1013.8 |
| 20260507102431 | 2 | 212 | 17.7 | 27.4 | 0.00 | 0.66 | 0.00 | 76 | 1013.8 |
| 20260507101932 | 2 | 223 | 17.7 | 27.4 | 0.00 | 0.66 | 0.00 | 76 | 1013.7 |
| 20260507101429 | 2 | 219 | 17.7 | 29.0 | 0.00 | 0.66 | 0.00 | 77 | 1013.7 |
| 20260507101201 | 2 | 228 | 19.3 | 29.0 | 0.00 | 0.66 | 0.00 | 77 | 1013.7 |
| 20260507100424 | 2 | 212 | 19.3 | 30.6 | 0.00 | 0.66 | 0.00 | 77 | 1013.8 |
| 20260507100143 | 2 | 226 | 20.9 | 30.6 | 0.00 | 0.66 | 0.00 | 77 | 1013.9 |
| 20260507095413 | 2 | 214 | 20.9 | 32.2 | 0.00 | 0.66 | 0.00 | 77 | 1013.8 |
| 20260507094909 | 2 | 227 | 24.1 | 32.2 | 0.00 | 0.66 | 0.00 | 78 | 1013.9 |
| 20260507094410 | 2 | 230 | 20.9 | 30.6 | 0.00 | 0.66 | 0.00 | 78 | 1013.8 |
| 20260507093909 | 2 | 241 | 22.5 | 29.0 | 0.00 | 0.66 | 0.00 | 79 | 1013.8 |
| 20260507093405 | 2 | 214 | 22.5 | 29.0 | 0.00 | 0.66 | 0.00 | 79 | 1013.8 |
| 20260507092906 | 2 | 234 | 22.5 | 29.0 | 0.00 | 0.66 | 0.00 | 80 | 1013.9 |
| 20260507092405 | 2 | 237 | 19.3 | 29.0 | 0.00 | 0.66 | 0.00 | 80 | 1014.0 |
| 20260507091905 | 2 | 250 | 22.5 | 32.2 | 0.00 | 0.66 | 0.00 | 80 | 1014.0 |
| 20260507091403 | 2 | 227 | 22.5 | 32.2 | 0.00 | 0.66 | 0.00 | 81 | 1013.9 |
| 20260507090903 | 2 | 231 | 24.1 | 30.6 | 0.00 | 0.66 | 0.00 | 82 | 1014.0 |
| 20260507090403 | 1 | 240 | 19.3 | 30.6 | 0.00 | 0.66 | 0.00 | 82 | 1014.0 |
| 20260507085904 | 1 | 228 | 19.3 | 30.6 | 0.00 | 0.66 | 0.00 | 82 | 1014.0 |
| 20260507085402 | 1 | 234 | 19.3 | 29.0 | 0.00 | 0.66 | 0.00 | 82 | 1014.1 |
| 20260507084902 | 1 | 233 | 17.7 | 29.0 | 0.00 | 0.66 | 0.00 | 82 | 1014.1 |
| 20260507084402 | 1 | 237 | 17.7 | 25.7 | 0.00 | 0.66 | 0.00 | 82 | 1014.2 |
| 20260507083902 | 1 | 250 | 16.1 | 25.7 | 0.00 | 0.66 | 0.00 | 82 | 1014.1 |
| 20260507082902 | 1 | 212 | 17.7 | 25.7 | 0.00 | 0.66 | 0.00 | 82 | 1014.2 |
| 20260507082402 | 1 | 240 | 17.7 | 24.1 | 0.00 | 0.66 | 0.00 | 82 | 1014.4 |
| 20260507081903 | 1 | 234 | 17.7 | 25.7 | 0.00 | 0.66 | 0.00 | 82 | 1014.5 |
| 20260507081403 | 1 | 247 | 17.7 | 30.6 | 0.00 | 0.66 | 0.00 | 82 | 1014.5 |
| 20260507080404 | 2 | 237 | 22.5 | 32.2 | 0.00 | 0.66 | 0.00 | 82 | 1014.6 |
| 20260507075902 | 2 | 227 | 22.5 | 33.8 | 0.00 | 0.66 | 0.00 | 82 | 1014.6 |
| 20260507075403 | 2 | 231 | 25.7 | 33.8 | 0.00 | 0.66 | 0.00 | 82 | 1014.6 |
| 20260507074903 | 2 | 214 | 24.1 | 33.8 | 0.00 | 0.66 | 0.00 | 82 | 1014.8 |
| 20260507074403 | 2 | 226 | 22.5 | 33.8 | 0.00 | 0.66 | 0.00 | 82 | 1014.8 |
| 20260507073902 | 2 | 224 | 24.1 | 33.8 | 0.00 | 0.66 | 0.00 | 82 | 1014.8 |
| 20260507073402 | 2 | 237 | 22.5 | 33.8 | 0.00 | 0.66 | 0.00 | 82 | 1014.9 |
| 20260507072903 | 2 | 228 | 24.1 | 33.8 | 0.00 | 0.66 | 0.00 | 82 | 1015.0 |
| 20260507072622 | 2 | 219 | 24.1 | 35.4 | 0.00 | 0.69 | 0.00 | 82 | 1015.0 |
| 20260507071901 | 2 | 237 | 24.1 | 35.4 | 0.00 | 0.69 | 0.00 | 82 | 1015.0 |
| 20260507071404 | 2 | 227 | 25.7 | 38.6 | 0.00 | 0.69 | 0.00 | 81 | 1015.2 |
| 20260507070906 | 2 | 214 | 24.1 | 38.6 | 0.00 | 0.69 | 0.00 | 81 | 1015.2 |
| 20260507070402 | 2 | 200 | 25.7 | 41.8 | 0.00 | 0.69 | 0.00 | 81 | 1015.2 |
| 20260507070131 | 2 | 216 | 27.4 | 41.8 | 0.00 | 0.69 | 0.00 | 81 | 1015.2 |
| 20260507065401 | 2 | 235 | 25.7 | 41.8 | 0.00 | 0.69 | 0.00 | 81 | 1015.3 |
| 20260507064402 | 2 | 228 | 30.6 | 46.7 | 0.00 | 0.69 | 0.00 | 80 | 1015.3 |
| 20260507063903 | 2 | 217 | 29.0 | 41.8 | 0.00 | 0.69 | 0.00 | 80 | 1015.3 |
| 20260507063402 | 2 | 237 | 27.4 | 45.1 | 0.00 | 0.69 | 0.00 | 80 | 1015.3 |
| 20260507062902 | 2 | 221 | 30.6 | 45.1 | 0.00 | 0.69 | 0.00 | 80 | 1015.4 |
| 20260507062402 | 2 | 227 | 29.0 | 43.5 | 0.00 | 0.69 | 0.00 | 80 | 1015.4 |
| 20260507061903 | 2 | 217 | 29.0 | 38.6 | 0.00 | 0.69 | 0.00 | 80 | 1015.4 |
| 20260507061627 | 2 | 214 | 25.7 | 35.4 | 0.00 | 0.69 | 0.00 | 80 | 1015.4 |
| 20260507061127 | 1 | 235 | 24.1 | 35.4 | 0.00 | 0.69 | 0.00 | 80 | 1015.4 |
| 20260507060404 | 1 | 202 | 24.1 | 33.8 | 0.00 | 0.69 | 0.00 | 80 | 1015.5 |
| 20260507055903 | 1 | 189 | 20.9 | 32.2 | 0.00 | 0.69 | 0.69 | 80 | 1015.5 |
| 20260507055403 | 1 | 203 | 20.9 | 32.2 | 0.00 | 0.69 | 0.69 | 80 | 1015.6 |
| 20260507055123 | 1 | 216 | 19.3 | 30.6 | 0.00 | 0.69 | 0.69 | 80 | 1015.5 |
| 20260507054404 | 1 | 197 | 17.7 | 29.0 | 0.00 | 0.69 | 0.69 | 80 | 1015.6 |
| 20260507053903 | 1 | 186 | 17.7 | 32.2 | 0.00 | 0.69 | 0.69 | 80 | 1015.7 |
| 20260507053403 | 1 | 221 | 19.3 | 32.2 | 0.00 | 0.69 | 0.69 | 80 | 1015.7 |
| 20260507052903 | 1 | 227 | 19.3 | 32.2 | 0.00 | 0.69 | 0.69 | 80 | 1015.8 |
| 20260507052400 | 1 | 223 | 20.9 | 32.2 | 0.00 | 0.69 | 0.69 | 81 | 1016.0 |
| 20260507051858 | 1 | 230 | 22.5 | 27.4 | 0.00 | 0.69 | 0.69 | 81 | 1016.1 |
| 20260507051357 | 1 | 234 | 16.1 | 25.7 | 0.00 | 0.69 | 0.69 | 81 | 1016.1 |
| 20260507050857 | 1 | 204 | 17.7 | 27.4 | 0.00 | 0.69 | 0.69 | 80 | 1016.2 |
| 20260507050356 | 1 | 233 | 19.3 | 29.0 | 0.00 | 0.69 | 0.69 | 80 | 1016.2 |
| 20260507045856 | 1 | 235 | 17.7 | 29.0 | 0.00 | 0.69 | 0.69 | 80 | 1016.3 |
| 20260507045356 | 1 | 221 | 19.3 | 27.4 | 0.00 | 0.69 | 0.69 | 80 | 1016.4 |
| 20260507045121 | 1 | 203 | 17.7 | 30.6 | 0.00 | 0.69 | 0.69 | 80 | 1016.4 |
| 20260507044357 | 2 | 204 | 17.7 | 30.6 | 0.00 | 0.69 | 0.69 | 80 | 1016.5 |
| 20260507043857 | 2 | 223 | 16.1 | 25.7 | 0.00 | 0.69 | 0.69 | 80 | 1016.5 |
| 20260507043359 | 2 | 210 | 17.7 | 30.6 | 0.00 | 0.69 | 0.69 | 80 | 1016.8 |
| 20260507042857 | 2 | 216 | 16.1 | 30.6 | 0.00 | 0.69 | 0.69 | 79 | 1016.8 |
| 20260507041855 | 2 | 224 | 16.1 | 24.1 | 0.00 | 0.69 | 0.69 | 78 | 1016.8 |
| 20260507041356 | 2 | 220 | 14.5 | 25.7 | 0.00 | 0.69 | 0.69 | 78 | 1016.9 |
| 20260507040856 | 2 | 223 | 17.7 | 25.7 | 0.00 | 0.69 | 0.69 | 77 | 1016.9 |
| 20260507040356 | 2 | 223 | 17.7 | 24.1 | 0.00 | 0.69 | 0.69 | 76 | 1017.0 |
| 20260507035855 | 2 | 217 | 17.7 | 24.1 | 0.00 | 0.69 | 0.69 | 76 | 1017.1 |
| 20260507035355 | 2 | 214 | 12.9 | 24.1 | 0.00 | 0.69 | 0.69 | 75 | 1017.1 |
| 20260507034855 | 2 | 219 | 16.1 | 22.5 | 0.00 | 0.71 | 0.69 | 75 | 1017.1 |
| 20260507034354 | 2 | 214 | 14.5 | 20.9 | 0.00 | 0.71 | 0.69 | 74 | 1017.2 |
| 20260507033855 | 2 | 228 | 14.5 | 19.3 | 0.00 | 0.71 | 0.69 | 74 | 1017.2 |
| 20260507033354 | 3 | 228 | 14.5 | 20.9 | 0.00 | 0.71 | 0.69 | 73 | 1017.1 |
| 20260507032854 | 3 | 231 | 16.1 | 22.5 | 0.00 | 0.71 | 0.69 | 72 | 1017.2 |
| 20260507032355 | 3 | 228 | 14.5 | 22.5 | 0.00 | 0.71 | 0.69 | 72 | 1017.2 |
| 20260507031855 | 3 | 228 | 16.1 | 22.5 | 0.00 | 0.71 | 0.69 | 71 | 1017.3 |
| 20260507031353 | 3 | 240 | 16.1 | 22.5 | 0.00 | 0.71 | 0.69 | 70 | 1017.5 |
| 20260507030854 | 3 | 234 | 16.1 | 20.9 | 0.00 | 0.71 | 0.69 | 70 | 1017.3 |
| 20260507030355 | 3 | 227 | 14.5 | 17.7 | 0.00 | 0.71 | 0.69 | 69 | 1017.3 |
| 20260507025854 | 3 | 235 | 12.9 | 19.3 | 0.00 | 0.71 | 0.69 | 69 | 1017.3 |
| 20260507025354 | 4 | 223 | 14.5 | 19.3 | 0.00 | 0.71 | 0.69 | 68 | 1017.3 |
| 20260507024853 | 4 | 240 | 14.5 | 17.7 | 0.00 | 0.71 | 0.69 | 67 | 1017.3 |
| 20260507024626 | 4 | 247 | 12.9 | 19.3 | 0.00 | 0.71 | 0.69 | 67 | 1017.2 |
| 20260507023854 | 4 | 243 | 12.9 | 19.3 | 0.00 | 0.71 | 0.69 | 66 | 1017.2 |
| 20260507023355 | 5 | 238 | 12.9 | 19.3 | 0.00 | 0.71 | 0.69 | 66 | 1017.1 |
| 20260507023117 | 5 | 224 | 11.3 | 19.3 | 0.00 | 0.71 | 0.69 | 65 | 1017.1 |
| 20260507022353 | 5 | 243 | 11.3 | 19.3 | 0.00 | 0.71 | 0.69 | 65 | 1017.1 |
| 20260507021854 | 5 | 244 | 12.9 | 17.7 | 0.00 | 0.71 | 0.69 | 65 | 1017.0 |
| 20260507021352 | 5 | 245 | 11.3 | 17.7 | 0.00 | 0.71 | 0.69 | 64 | 1017.0 |
| 20260507020854 | 5 | 226 | 11.3 | 16.1 | 0.00 | 0.71 | 0.69 | 64 | 1016.9 |
| 20260507020353 | 6 | 224 | 9.7 | 17.7 | 0.00 | 0.71 | 0.69 | 63 | 1016.9 |
| 20260507015853 | 6 | 250 | 9.7 | 17.7 | 0.00 | 0.71 | 0.69 | 62 | 1016.8 |
| 20260507015614 | 6 | 224 | 9.7 | 16.1 | 0.00 | 0.71 | 0.69 | 62 | 1016.9 |
| 20260507014853 | 6 | 220 | 8.0 | 16.1 | 0.00 | 0.71 | 0.69 | 61 | 1016.9 |
| 20260507014615 | 6 | 207 | 11.3 | 16.1 | 0.00 | 0.71 | 0.69 | 61 | 1016.9 |
| 20260507013851 | 6 | 212 | 9.7 | 17.7 | 0.00 | 0.71 | 0.69 | 61 | 1016.9 |
| 20260507013352 | 6 | 217 | 11.3 | 17.7 | 0.00 | 0.71 | 0.69 | 60 | 1016.8 |
| 20260507012851 | 6 | 200 | 8.0 | 19.3 | 0.00 | 0.71 | 0.69 | 61 | 1016.9 |
| 20260507012617 | 6 | 230 | 9.7 | 22.5 | 0.00 | 0.71 | 0.69 | 61 | 1016.9 |
| 20260507011853 | 6 | 217 | 12.9 | 24.1 | 0.00 | 0.71 | 0.69 | 60 | 1016.9 |
| 20260507011353 | 6 | 230 | 16.1 | 24.1 | 0.00 | 0.71 | 0.69 | 59 | 1016.9 |
| 20260507010851 | 6 | 231 | 12.9 | 16.1 | 0.00 | 0.74 | 0.69 | 57 | 1016.9 |
| 20260507010614 | 7 | 224 | 8.0 | 16.1 | 0.00 | 0.74 | 0.69 | 57 | 1016.8 |
| 20260507005853 | 7 | 247 | 8.0 | 16.1 | 0.00 | 0.74 | 0.69 | 57 | 1016.9 |
| 20260507005351 | 7 | 261 | 6.4 | 19.3 | 0.00 | 0.74 | 0.69 | 57 | 1017.0 |
| 20260507004850 | 7 | 240 | 9.7 | 19.3 | 0.00 | 0.74 | 0.69 | 55 | 1016.9 |
| 20260507004350 | 7 | 255 | 6.4 | 16.1 | 0.00 | 0.76 | 0.69 | 54 | 1017.0 |
| 20260507003851 | 7 | 310 | 9.7 | 19.3 | 0.00 | 0.76 | 0.69 | 54 | 1017.0 |
| 20260507003350 | 7 | 220 | 11.3 | 19.3 | 0.00 | 0.76 | 0.69 | 54 | 1017.1 |
| 20260507002850 | 7 | 233 | 12.9 | 19.3 | 0.00 | 0.79 | 0.69 | 55 | 1017.0 |
| 20260507002350 | 8 | 251 | 11.3 | 25.7 | 0.00 | 0.79 | 0.69 | 52 | 1017.1 |
| 20260507001851 | 8 | 252 | 16.1 | 25.7 | 0.00 | 0.79 | 0.69 | 51 | 1017.0 |
| 20260507001351 | 8 | 240 | 11.3 | 24.1 | 0.00 | 0.79 | 0.69 | 51 | 1017.1 |
| 20260507000851 | 8 | 235 | 17.7 | 24.1 | 0.00 | 0.81 | 0.69 | 52 | 1017.1 |
| 20260507000350 | 8 | 240 | 14.5 | 27.4 | 0.00 | 0.81 | 0.69 | 50 | 1017.2 |
| 20260506235851 | 8 | 259 | 19.3 | 27.4 | 0.00 | 0.81 | 0.69 | 51 | 1017.2 |
| 20260506235349 | 8 | 234 | 14.5 | 27.4 | 0.00 | 0.84 | 0.69 | 49 | 1017.2 |
| 20260506234851 | 8 | 227 | 11.3 | 22.5 | 0.00 | 0.84 | 0.69 | 47 | 1017.2 |
| 20260506234350 | 9 | 238 | 14.5 | 22.5 | 0.00 | 0.84 | 0.69 | 51 | 1017.3 |
| 20260506233849 | 9 | 275 | 8.0 | 20.9 | 0.00 | 0.84 | 0.69 | 51 | 1017.2 |
| 20260506233350 | 9 | 258 | 11.3 | 33.8 | 0.00 | 0.84 | 0.69 | 50 | 1017.3 |
| 20260506232850 | 9 | 243 | 22.5 | 33.8 | 0.00 | 0.84 | 0.69 | 50 | 1017.2 |
| 20260506232349 | 9 | 259 | 14.5 | 25.7 | 0.00 | 0.86 | 0.69 | 51 | 1017.2 |
| 20260506231850 | 9 | 220 | 14.5 | 25.7 | 0.00 | 0.86 | 0.69 | 51 | 1017.1 |
| 20260506231350 | 8 | 207 | 12.9 | 25.7 | 0.00 | 0.86 | 0.69 | 51 | 1017.1 |
| 20260506230850 | 8 | 210 | 9.7 | 25.7 | 0.00 | 0.86 | 0.69 | 50 | 1017.1 |
| 20260506230348 | 8 | 237 | 12.9 | 20.9 | 0.00 | 0.86 | 0.69 | 53 | 1017.2 |
| 20260506225847 | 8 | 224 | 8.0 | 19.3 | 0.00 | 0.86 | 0.69 | 52 | 1017.3 |
| 20260506225349 | 8 | 323 | 9.7 | 19.3 | 0.00 | 0.86 | 0.69 | 54 | 1017.3 |
| 20260506225112 | 8 | 243 | 14.5 | 20.9 | 0.00 | 0.86 | 0.69 | 53 | 1017.3 |
| 20260506224347 | 8 | 266 | 9.7 | 20.9 | 0.00 | 0.86 | 0.69 | 54 | 1017.3 |
| 20260506223848 | 8 | 254 | 12.9 | 20.9 | 0.00 | 0.86 | 0.69 | 54 | 1017.3 |
| 20260506223348 | 8 | 231 | 9.7 | 20.9 | 0.00 | 0.86 | 0.69 | 54 | 1017.3 |
| 20260506222847 | 8 | 272 | 6.4 | 17.7 | 0.00 | 0.86 | 0.69 | 54 | 1017.3 |
| 20260506222348 | 8 | 278 | 9.7 | 17.7 | 0.00 | 0.86 | 0.69 | 53 | 1017.5 |
| 20260506221850 | 8 | 309 | 8.0 | 11.3 | 0.00 | 0.86 | 0.69 | 55 | 1017.5 |
| 20260506221347 | 8 | 296 | 4.8 | 14.5 | 0.00 | 0.86 | 0.69 | 53 | 1017.6 |
| 20260506220850 | 8 | 281 | 8.0 | 16.1 | 0.00 | 0.86 | 0.69 | 55 | 1017.7 |
| 20260506220346 | 8 | 265 | 9.7 | 16.1 | 0.00 | 0.86 | 0.69 | 53 | 1017.6 |
| 20260506220110 | 8 | 266 | 4.8 | 14.5 | 0.00 | 0.86 | 0.69 | 53 | 1017.6 |
| 20260506215347 | 8 | 251 | 4.8 | 16.1 | 0.00 | 0.89 | 0.69 | 54 | 1017.6 |
| 20260506214846 | 8 | 227 | 9.7 | 17.7 | 0.00 | 0.89 | 0.69 | 54 | 1017.7 |
| 20260506214611 | 8 | 281 | 6.4 | 17.7 | 0.00 | 0.89 | 0.69 | 56 | 1017.7 |
| 20260506213844 | 7 | 285 | 4.8 | 11.3 | 0.00 | 0.89 | 0.69 | 56 | 1017.8 |
| 20260506213557 | 7 | 279 | 6.4 | 11.3 | 0.00 | 0.89 | 0.69 | 55 | 1017.8 |
| 20260506212841 | 7 | 296 | 1.6 | 11.3 | 0.00 | 0.91 | 0.69 | 53 | 1017.8 |
| 20260506212337 | 7 | 289 | 8.0 | 14.5 | 0.00 | 0.91 | 0.69 | 57 | 1017.9 |
| 20260506211834 | 7 | 295 | 9.7 | 14.5 | 0.00 | 0.91 | 0.69 | 56 | 1017.9 |
| 20260506210831 | 7 | 288 | 6.4 | 17.7 | 0.00 | 0.94 | 0.69 | 56 | 1018.0 |
| 20260506210332 | 7 | 289 | 8.0 | 17.7 | 0.00 | 0.97 | 0.69 | 56 | 1018.1 |
| 20260506205832 | 7 | 185 | 4.8 | 9.7 | 0.00 | 0.97 | 0.69 | 55 | 1018.0 |
| 20260506205600 | 7 | 288 | 3.2 | 9.7 | 0.00 | 0.97 | 0.69 | 60 | 1018.3 |
| 20260506204832 | 6 | 292 | 3.2 | 11.3 | 0.00 | 0.99 | 0.69 | 54 | 1018.3 |
| 20260506204332 | 7 | 213 | 4.8 | 11.3 | 0.00 | 0.99 | 0.69 | 58 | 1018.3 |
| 20260506204059 | 6 | 324 | 0.0 | 11.3 | 0.00 | 0.99 | 0.69 | 56 | 1018.3 |
| 20260506203329 | 7 | 327 | 4.8 | 11.3 | 0.00 | 1.02 | 0.69 | 56 | 1018.4 |
| 20260506202826 | 7 | 306 | 3.2 | 8.0 | 0.00 | 1.02 | 0.69 | 58 | 1018.5 |
| 20260506202325 | 7 | 8 | 3.2 | 6.4 | 0.00 | 1.04 | 0.69 | 56 | 1018.6 |
| 20260506201826 | 7 | 161 | 1.6 | 14.5 | 0.00 | 1.04 | 0.69 | 57 | 1018.6 |
| 20260506201323 | 7 | 158 | 8.0 | 14.5 | 0.00 | 1.07 | 0.69 | 59 | 1018.7 |
| 20260506200823 | 7 | 123 | 4.8 | 8.0 | 0.00 | 1.07 | 0.69 | 58 | 1018.7 |
| 20260506200319 | 7 | 152 | 3.2 | 6.4 | 0.00 | 1.07 | 0.69 | 58 | 1018.7 |
| 20260506195312 | 7 | 295 | 0.0 | 14.5 | 0.00 | 1.09 | 0.69 | 58 | 1018.8 |
| 20260506194811 | 7 | 327 | 4.8 | 14.5 | 0.00 | 1.09 | 0.69 | 60 | 1018.8 |
| 20260506194311 | 7 | 310 | 8.0 | 11.3 | 0.00 | 1.09 | 0.69 | 63 | 1018.9 |
| 20260506193808 | 6 | 250 | 3.2 | 8.0 | 0.00 | 1.12 | 0.69 | 62 | 1018.8 |
| 20260506193526 | 6 | 345 | 3.2 | 8.0 | 0.00 | 1.12 | 0.69 | 61 | 1018.8 |
| 20260506192806 | 6 | 292 | 4.8 | 9.7 | 0.00 | 1.12 | 0.69 | 60 | 1018.8 |
| 20260506192306 | 6 | 4 | 4.8 | 16.1 | 0.00 | 1.12 | 0.69 | 62 | 1018.8 |
| 20260506191805 | 6 | 38 | 6.4 | 16.1 | 0.00 | 1.14 | 0.69 | 62 | 1018.8 |
| 20260506191523 | 6 | 44 | 1.6 | 11.3 | 0.00 | 1.14 | 0.69 | 60 | 1018.9 |
| 20260506191025 | 6 | 8 | 4.8 | 11.3 | 0.00 | 1.17 | 0.69 | 62 | 1018.9 |
| 20260506185804 | 6 | 61 | 8.0 | 14.5 | 0.00 | 1.17 | 0.69 | 63 | 1018.9 |
| 20260506185306 | 6 | 52 | 3.2 | 14.5 | 0.00 | 1.17 | 0.69 | 64 | 1018.9 |
| 20260506184804 | 6 | 0 | 6.4 | 11.3 | 0.03 | 1.19 | 0.69 | 64 | 1018.9 |
| 20260506184302 | 6 | 47 | 1.6 | 11.3 | 0.03 | 1.19 | 0.69 | 62 | 1018.9 |
| 20260506183803 | 6 | 49 | 4.8 | 17.7 | 0.03 | 1.19 | 0.69 | 58 | 1018.9 |
| 20260506183303 | 6 | 14 | 6.4 | 17.7 | 0.05 | 1.19 | 0.69 | 60 | 1019.1 |
| 20260506182802 | 6 | 354 | 6.4 | 14.5 | 0.05 | 1.19 | 0.69 | 62 | 1018.9 |
| 20260506182306 | 6 | 323 | 8.0 | 19.3 | 0.08 | 1.22 | 0.69 | 63 | 1018.9 |
| 20260506181804 | 6 | 52 | 12.9 | 19.3 | 0.08 | 1.22 | 0.69 | 63 | 1019.1 |
| 20260506181305 | 5 | 1 | 6.4 | 17.7 | 0.10 | 1.22 | 0.69 | 60 | 1018.9 |
| 20260506180803 | 6 | 45 | 11.3 | 17.7 | 0.10 | 1.22 | 0.69 | 64 | 1019.1 |
| 20260506180303 | 6 | 55 | 6.4 | 16.1 | 0.13 | 1.22 | 0.69 | 62 | 1019.1 |
| 20260506175803 | 6 | 4 | 6.4 | 16.1 | 0.15 | 1.24 | 0.69 | 66 | 1019.1 |
| 20260506175305 | 6 | 0 | 9.7 | 17.7 | 0.18 | 1.24 | 0.69 | 67 | 1019.1 |
| 20260506174804 | 5 | 31 | 8.0 | 17.7 | 0.18 | 1.22 | 0.66 | 65 | 1019.2 |
| 20260506174527 | 5 | 38 | 6.4 | 17.7 | 0.20 | 1.22 | 0.66 | 65 | 1019.2 |
| 20260506173803 | 5 | 41 | 11.3 | 17.7 | 0.23 | 1.22 | 0.66 | 65 | 1019.3 |
| 20260506173302 | 5 | 89 | 11.3 | 20.9 | 0.25 | 1.19 | 0.64 | 71 | 1019.2 |
| 20260506172803 | 5 | 55 | 12.9 | 20.9 | 0.28 | 1.19 | 0.64 | 68 | 1019.1 |
| 20260506172306 | 5 | 30 | 8.0 | 20.9 | 0.28 | 1.17 | 0.61 | 69 | 1019.1 |
| 20260506171801 | 5 | 41 | 11.3 | 20.9 | 0.30 | 1.19 | 0.61 | 70 | 1019.1 |
| 20260506171301 | 5 | 54 | 16.1 | 24.1 | 0.30 | 1.17 | 0.58 | 71 | 1018.9 |
| 20260506170252 | 5 | 31 | 12.9 | 22.5 | 0.36 | 1.14 | 0.56 | 77 | 1018.9 |
| 20260506165752 | 4 | 35 | 6.4 | 24.1 | 0.36 | 1.12 | 0.53 | 74 | 1018.9 |
| 20260506165249 | 4 | 7 | 16.1 | 24.1 | 0.33 | 1.09 | 0.51 | 76 | 1019.2 |
| 20260506165012 | 4 | 52 | 11.3 | 25.7 | 0.33 | 1.07 | 0.48 | 78 | 1019.1 |
| 20260506164246 | 4 | 38 | 17.7 | 25.7 | 0.30 | 1.04 | 0.46 | 77 | 1019.1 |
| 20260506164007 | 4 | 32 | 11.3 | 25.7 | 0.28 | 1.04 | 0.43 | 80 | 1018.9 |
| 20260506163510 | 3 | 49 | 14.5 | 25.7 | 0.25 | 0.99 | 0.38 | 82 | 1018.9 |
| 20260506162956 | 3 | 34 | 14.5 | 20.9 | 0.23 | 0.99 | 0.36 | 86 | 1018.8 |
| 20260506162244 | 3 | 66 | 12.9 | 20.9 | 0.20 | 0.99 | 0.33 | 87 | 1018.8 |
| 20260506161739 | 3 | 49 | 9.7 | 19.3 | 0.20 | 0.97 | 0.30 | 89 | 1018.8 |
| 20260506161241 | 3 | 31 | 11.3 | 19.3 | 0.18 | 0.94 | 0.28 | 90 | 1018.8 |
| 20260506160739 | 3 | 18 | 9.7 | 17.7 | 0.15 | 0.91 | 0.25 | 92 | 1018.8 |
| 20260506160241 | 3 | 25 | 11.3 | 16.1 | 0.13 | 0.89 | 0.20 | 92 | 1018.7 |
| 20260506155738 | 2 | 8 | 9.7 | 16.1 | 0.10 | 0.86 | 0.18 | 92 | 1018.7 |
| 20260506155241 | 2 | 31 | 8.0 | 16.1 | 0.10 | 0.89 | 0.18 | 92 | 1018.8 |
| 20260506154738 | 2 | 10 | 9.7 | 16.1 | 0.08 | 0.86 | 0.15 | 93 | 1018.7 |
| 20260506154241 | 2 | 4 | 6.4 | 14.5 | 0.08 | 0.86 | 0.15 | 93 | 1018.7 |
| 20260506153740 | 2 | 32 | 9.7 | 17.7 | 0.10 | 0.89 | 0.15 | 93 | 1018.7 |
| 20260506153240 | 1 | 45 | 8.0 | 17.7 | 0.08 | 0.86 | 0.13 | 93 | 1018.6 |
| 20260506152739 | 1 | 35 | 8.0 | 14.5 | 0.08 | 0.89 | 0.13 | 93 | 1018.6 |
| 20260506152240 | 1 | 21 | 9.7 | 14.5 | 0.08 | 0.89 | 0.13 | 93 | 1018.7 |
| 20260506151737 | 1 | 45 | 8.0 | 14.5 | 0.05 | 0.89 | 0.10 | 93 | 1018.6 |
| 20260506151239 | 1 | 38 | 6.4 | 11.3 | 0.05 | 0.89 | 0.10 | 93 | 1018.5 |
| 20260506150737 | 1 | 49 | 6.4 | 11.3 | 0.05 | 0.91 | 0.10 | 93 | 1018.5 |
| 20260506150239 | 1 | 32 | 6.4 | 11.3 | 0.03 | 0.89 | 0.08 | 93 | 1018.4 |
| 20260506145240 | 1 | 37 | 6.4 | 16.1 | 0.03 | 0.91 | 0.08 | 93 | 1018.3 |